{"data":{"norad_id":58492,"epoch":"2026-09-20T02:56:24.607392Z","epoch_age_seconds":179581,"freshness":"STALE","line1":"1 58492U 23186V   26263.12250703 -.00000603  00000+0 -12396-4 0  9992","line2":"2 58492  43.0050  45.4657 0001673 268.7414  91.3246 15.27577675155628","mean_motion":15.27577675,"eccentricity":0.0001673,"inclination_deg":43.005,"raan_deg":45.4657,"arg_perigee_deg":268.7414,"mean_anomaly_deg":91.3246,"bstar":-1.2396e-5,"rev_number":15562,"period_min":94.266892189296,"perigee_km":481.90818033631,"apogee_km":484.20393553349,"semimajor_km":6861.1930579349,"source":"CELESTRAK","updated_at":"2026-09-21T09:00:33.905419Z"}}